Regional Weather Roundup
Issued by NWS State College, PA

Current Version | Previous Version | Text Only | Print | Product List | Glossary On
Versions: 1 2 3 4 5 6 7 8 9 10 11 12 13 14 15 16 17 18 19 20 21 22 23 24 25 26 27 28 29 30 31 32 33 34 35 36 37 38 39 40 41 42 43 44 45 46 47 48 49 50
000
ASUS41 KCTP 281210
RWRCTP

REGIONAL WEATHER ROUNDUP
NATIONAL WEATHER SERVICE STATE COLLEGE PA
800 AM EDT MON JUL 28 2014

Note: "fair" indicates few or no clouds below 12,000 feet with no
significant weather and/or obstructions to visibility.

* = STATION THAT DOES NOT REPORT PRECIPITATION /E.G. RAIN...SNOW...ETC/
    THUNDER OR FOG.

PAZ002>004-007>009-013>016-020>023-029>032-281300-
WESTERN PENNSYLVANIA

CITY           SKY/WX    TMP DP  RH WIND       PRES   REMARKS
ERIE           CLOUDY    67  61  81 N7        29.63S
MEADVILLE      CLOUDY    61  59  93 W9        29.67S
FRANKLIN*      CLOUDY    61  55  82 W9        29.69R
NEW CASTLE       N/A     62  59  90 W13       29.71R
BEAVER COUNTY  CLOUDY    61  59  94 W7        29.71S
BUTLER*        CLOUDY    63  57  82 W6        29.72R
PITTSBURGH INT CLOUDY    63  60  90 W9        29.72R
PITTSBURGH     CLOUDY    63  59  87 W9        29.71R
INDIANA*       CLOUDY    63  59  88 NW10      29.73R
LATROBE        CLOUDY    64  63  94 W8        29.72R
WASHINGTON CO* PTSUNNY   64  57  77 W8G16     29.74R
$$

PAZ004>006-010>012-017>019-024>028-033>037-041-042-045-046-049>053-281300-
CENTRAL PENNSYLVANIA

CITY           SKY/WX    TMP DP  RH WIND       PRES   REMARKS
BRADFORD       CLOUDY    60  57  89 W12       29.65R
DUBOIS         CLOUDY    62  59  90 W10G21    29.66R
CLEARFIELD     CLOUDY    63  60  90 SW9       29.65R
JOHNSTOWN      CLOUDY    59  57  93 W16G23    29.70R
ALTOONA        CLOUDY    66  59  78 W10G18    29.68R
STATE COLLEGE  CLOUDY    64  61  88 SW7       29.62R
WILLIAMSPORT   PTSUNNY   67  62  84 W10       29.55R
SELINSGROVE    PTSUNNY   67  64  90 S3        29.58S
FT INDIANTOWN  PTSUNNY   66  66 100 SW6       29.60R
CAPITAL CITY   PTSUNNY   67  64  90 CALM      29.59R
HARRISBURG     PTSUNNY   69  65  86 CALM      29.59R
YORK           SUNNY     71  66  84 VRB7      29.60R
$$

PAZ038>040-043-044-047-048-054-055-060>062-067>071-281300-
EASTERN PENNSYLVANIA

CITY           SKY/WX    TMP DP  RH WIND       PRES   REMARKS
SCRANTON       CLOUDY    67  64  90 SW3       29.57S
MOUNT POCONO   CLOUDY    64  61  90 W8        29.60S
ALLENTOWN      LGT RAIN  68  65  90 W8        29.58R FOG
QUAKERTOWN*    CLOUDY    68  66  94 W3        29.60R
READING        MOSUNNY   71  66  84 W5        29.58R
LANCASTER      CLOUDY    68  65  90 W7        29.59S FOG
COATESVILLE    MOSUNNY   68  68 100 W3        29.62R
POTTSTOWN      CLOUDY    69  67  93 VRB5      29.61R
BLUE BELL      MOSUNNY   72  68  88 W5        29.59R
DOYLESTOWN     CLOUDY    68  67  96 W7        29.58R
WILLOW GROVE   NOT AVBL
NORTH PHILA    PTSUNNY   73  67  81 W7        29.59R
PHILADELPHIA   PTSUNNY   73  69  87 W10       29.58R
$$


USA.gov is the U.S. government's official web portal to all federal, state and local government web resources and services.